ES0THZ-13 Weather Reports


time (UTC)temp
C
wind
direction
speed
KPH
gust
KPH
rain 1hr
cm
rain 24hr
cm
rain mn
cm
humidity
%
barometer
mb
20260906050416 13 315 0.0 0.0 0.00 0.00 0.00 86 1002.5
20260906044611 12 270 0.0 0.0 0.00 0.00 0.00 86 1002.8
20260906042916 12 292 0.0 0.0 0.00 0.00 0.00 87 1001.5
20260906041231 11 337 0.0 0.0 0.00 0.00 0.00 88 1000.4
20260906035358 11 315 11.3 16.1 0.00 0.00 0.00 89 1002.0
20260906033556 11 315 0.0 0.0 0.00 0.00 0.00 89 999.8
20260906031631 11 270 0.0 0.0 0.00 0.00 0.00 89 1000.5
20260906025929 11 292 0.0 0.0 0.00 0.00 0.00 89 999.7
20260906024046 12 292 0.0 16.1 0.00 0.00 0.00 89 1000.6
20260906022316 12 292 0.0 0.0 0.00 0.00 0.00 89 999.3
20260906020611 12 270 0.0 0.0 0.00 0.00 0.00 89 999.7
20260906014718 12 270 0.0 30.6 0.00 0.00 0.00 89 1000.1
20260906012841 11 270 0.0 0.0 0.00 0.00 0.00 88 998.4
20260906011208 12 270 0.0 0.0 0.00 0.00 0.00 88 998.9
20260906005301 11 270 0.0 0.0 0.00 0.00 0.00 88 998.1
20260906003416 12 270 0.0 0.0 0.00 0.00 0.00 88 998.8
20260906001721 12 270 0.0 0.0 0.00 0.00 0.00 88 997.7
20260906000011 12 247 0.0 0.0 0.00 0.00 0.00 88 998.2
20260905234111 11 225 0.0 0.0 0.00 0.00 0.00 88 998.0
20260905232411 11 247 0.0 0.0 0.00 0.00 0.00 87 998.2
20260905230658 11 225 0.0 0.0 0.00 0.00 0.00 87 997.3
20260905224806 11 202 0.0 0.0 0.00 0.00 0.00 87 998.1
20260905223046 11 202 0.0 0.0 0.00 0.00 0.00 87 996.7
20260905221311 12 247 0.0 0.0 0.00 0.00 0.00 86 998.0
20260905215526 12 270 0.0 0.0 0.00 0.00 0.00 86 998.2
20260905213536 11 270 0.0 0.0 0.00 0.00 0.00 86 996.6
20260905211551 13 292 0.0 25.7 0.00 0.00 0.00 85 997.3
20260905205758 13 225 0.0 0.0 0.00 0.00 0.00 85 995.5
20260905204018 13 225 0.0 0.0 0.00 0.00 0.00 85 996.7
20260905202306 13 247 0.0 0.0 0.00 0.00 0.00 85 997.8
20260905200634 13 247 0.0 0.0 0.00 0.00 0.00 84 997.4
20260905194946 13 225 0.0 0.0 0.00 0.00 0.00 84 996.9
20260905193248 13 225 0.0 0.0 0.00 0.00 0.00 84 996.5
20260905191436 14 270 0.0 0.0 0.00 0.00 0.00 83 997.0
20260905185558 14 270 0.0 0.0 0.00 0.00 0.00 83 997.4
20260905183806 14 270 0.0 0.0 0.00 0.00 0.00 83 997.0
20260905181951 14 292 0.0 0.0 0.00 0.00 0.00 83 996.5
20260905180116 14 247 0.0 0.0 0.00 0.00 0.00 83 996.5
20260905174306 15 292 0.0 0.0 0.00 0.00 0.00 82 995.8
20260905172531 14 292 0.0 0.0 0.00 0.00 0.00 82 996.0
20260905170658 15 315 0.0 0.0 0.00 0.00 0.00 82 996.0
20260905164836 15 270 0.0 0.0 0.00 0.00 0.00 81 996.7
20260905162947 15 247 0.0 0.0 0.00 0.00 0.00 81 995.5
20260905161146 16 292 0.0 0.0 0.00 0.00 0.00 80 994.8
20260905155231 16 270 0.0 0.0 0.00 0.00 0.00 80 994.6
20260905153601 16 315 0.0 35.4 0.00 0.00 0.00 80 994.4
20260905151841 16 270 0.0 0.0 0.00 0.00 0.00 79 995.2
20260905145921 17 315 0.0 0.0 0.00 0.00 0.00 79 994.8
20260905144106 17 292 0.0 16.1 0.00 0.00 0.00 79 993.6
20260905142306 17 292 0.0 29.0 0.00 0.00 0.00 78 993.8
20260905140511 17 270 22.5 29.0 0.00 0.00 0.00 78 994.3
20260905134706 17 315 0.0 0.0 0.00 0.00 0.00 78 993.3
20260905132816 20 0 0.0 0.0 0.00 0.00 0.00 78 992.9
20260905131056 17 337 0.0 0.0 0.00 0.00 0.00 79 993.3
20260905125256 17 292 0.0 0.0 0.00 0.00 0.00 80 993.0
20260905123506 17 337 0.0 0.0 0.00 0.00 0.00 81 992.2
20260905121741 16 270 0.0 0.0 0.00 0.00 0.00 81 992.3
20260905115923 16 270 0.0 0.0 0.00 0.00 0.00 81 991.2
20260905114031 19 45 0.0 0.0 0.00 0.00 0.00 80 991.5
20260905112206 17 67 0.0 0.0 0.00 0.00 0.00 80 991.3
20260905110246 17 337 0.0 0.0 0.00 0.00 0.00 80 991.0
20260905104451 22 337 0.0 0.0 0.00 0.00 0.00 76 990.2
20260905102621 21 270 0.0 0.0 0.00 0.00 0.00 79 991.0
20260905100751 22 270 0.0 0.0 0.00 0.00 0.00 78 991.4
20260905094931 20 22 0.0 0.0 0.00 0.00 0.00 80 991.0
20260905093201 21 112 0.0 0.0 0.00 0.00 0.00 81 991.3
20260905091401 18 22 0.0 9.7 0.00 0.00 0.00 82 990.8
20260905085501 17 337 14.5 20.9 0.00 0.00 0.00 84 989.6
20260905083616 17 45 9.7 12.9 0.00 0.00 0.00 84 989.3
20260905081726 16 0 0.0 17.7 0.00 0.00 0.00 85 988.9
20260905080051 15 0 0.0 0.0 0.00 0.00 0.00 86 990.6
20260905074236 15 0 0.0 0.0 0.00 0.00 0.00 86 990.3
20260905072446 18 247 0.0 0.0 0.00 0.00 0.00 85 989.4
20260905070656 19 67 0.0 0.0 0.00 0.00 0.00 85 988.3
20260905064836 17 67 0.0 9.7 0.00 0.00 0.00 86 989.3
20260905062921 17 67 0.0 0.0 0.00 0.00 0.00 87 988.7
20260905061221 16 67 0.0 0.0 0.00 0.00 0.00 88 987.7
20260905055426 16 67 0.0 0.0 0.00 0.00 0.00 87 988.5
20260905053516 16 67 0.0 0.0 0.00 0.00 0.00 86 988.6